TimeEDT,TemperatureF,Dew PointF,Humidity,Sea Level PressureIn,VisibilityMPH,Wind Direction,Wind SpeedMPH,Gust SpeedMPH,PrecipitationIn,Events,Conditions,WindDirDegrees,DateUTC
12:54 AM,71.1,70.0,96,29.95,2.5,Calm,Calm,-,N/A,,Overcast,0,2013-07-19 04:54:00
1:02 AM,71.6,69.8,94,29.96,0.8,Calm,Calm,-,N/A,,Overcast,0,2013-07-19 05:02:00
1:23 AM,69.8,69.8,100,29.95,1.0,Calm,Calm,-,N/A,,Overcast,0,2013-07-19 05:23:00
1:33 AM,71.6,69.8,94,29.96,0.8,Calm,Calm,-,N/A,,Overcast,0,2013-07-19 05:33:00
1:54 AM,71.1,70.0,96,29.95,0.2,Calm,Calm,-,0.01,Fog,Fog,0,2013-07-19 05:54:00
2:54 AM,70.0,70.0,100,29.94,0.2,Calm,Calm,-,N/A,Fog,Fog,0,2013-07-19 06:54:00
3:54 AM,70.0,70.0,100,29.92,0.2,Calm,Calm,-,N/A,Fog,Fog,0,2013-07-19 07:54:00
4:27 AM,69.8,69.8,100,29.92,0.8,Calm,Calm,-,N/A,,Mist,0,2013-07-19 08:27:00
4:36 AM,69.8,69.8,100,29.92,2.0,Calm,Calm,-,N/A,,Overcast,0,2013-07-19 08:36:00
4:47 AM,69.8,69.8,100,29.92,3.0,Calm,Calm,-,N/A,,Overcast,0,2013-07-19 08:47:00
4:54 AM,69.1,69.1,100,29.91,1.8,Calm,Calm,-,N/A,,Overcast,0,2013-07-19 08:54:00
5:22 AM,69.8,69.8,100,29.91,3.0,Calm,Calm,-,N/A,,Overcast,0,2013-07-19 09:22:00
5:54 AM,66.9,66.9,100,29.91,9.0,Calm,Calm,-,N/A,,Mostly Cloudy,0,2013-07-19 09:54:00
6:20 AM,68.0,68.0,100,29.92,5.0,Calm,Calm,-,N/A,,Scattered Clouds,0,2013-07-19 10:20:00
6:42 AM,68.0,68.0,100,29.91,5.0,Calm,Calm,-,N/A,,Mostly Cloudy,0,2013-07-19 10:42:00
6:54 AM,68.0,68.0,100,29.91,2.5,Calm,Calm,-,N/A,,Mostly Cloudy,0,2013-07-19 10:54:00
7:01 AM,68.0,68.0,100,29.91,5.0,Calm,Calm,-,N/A,,Mostly Cloudy,0,2013-07-19 11:01:00
7:12 AM,69.8,68.0,94,29.91,9.0,Calm,Calm,-,N/A,,Scattered Clouds,0,2013-07-19 11:12:00
7:54 AM,71.1,69.1,93,29.89,7.0,Calm,Calm,-,N/A,,Clear,0,2013-07-19 11:54:00
8:54 AM,75.9,72.0,87,29.89,10.0,Calm,Calm,-,N/A,,Clear,0,2013-07-19 12:54:00
9:54 AM,84.0,73.9,72,29.86,10.0,Variable,3.5,-,N/A,,Clear,0,2013-07-19 13:54:00
10:54 AM,88.0,71.1,57,29.84,10.0,SW,11.5,18.4,N/A,,Clear,230,2013-07-19 14:54:00
11:54 AM,89.1,71.1,55,29.82,10.0,SW,12.7,20.7,N/A,,Clear,230,2013-07-19 15:54:00
12:54 PM,91.9,70.0,48,29.81,10.0,WSW,12.7,23.0,N/A,,Partly Cloudy,240,2013-07-19 16:54:00
1:54 PM,91.9,70.0,48,29.78,10.0,SW,10.4,24.2,N/A,,Partly Cloudy,230,2013-07-19 17:54:00
2:54 PM,93.0,68.0,44,29.75,10.0,WSW,11.5,21.9,N/A,,Clear,240,2013-07-19 18:54:00
3:54 PM,93.0,66.0,41,29.73,10.0,WSW,20.7,29.9,N/A,,Clear,240,2013-07-19 19:54:00
4:54 PM,93.0,66.9,42,29.71,10.0,SW,10.4,19.6,N/A,,Clear,230,2013-07-19 20:54:00
5:54 PM,91.9,66.9,44,29.71,10.0,West,12.7,20.7,N/A,,Clear,260,2013-07-19 21:54:00
6:54 PM,90.0,68.0,48,29.71,10.0,SW,8.1,17.3,N/A,,Clear,230,2013-07-19 22:54:00
7:54 PM,88.0,69.1,53,29.72,10.0,Calm,Calm,-,N/A,,Clear,0,2013-07-19 23:54:00
8:54 PM,82.0,72.0,71,29.72,10.0,Calm,Calm,-,N/A,,Clear,0,2013-07-20 00:54:00
9:54 PM,78.1,71.1,79,29.73,10.0,NW,3.5,-,N/A,,Clear,320,2013-07-20 01:54:00
10:54 PM,75.9,71.1,85,29.75,9.0,Variable,4.6,-,0.00,Rain,Light Rain,0,2013-07-20 02:54:00
11:01 PM,78.8,69.8,74,29.79,6.0,WSW,13.8,24.2,0.03,Rain-Thunderstorm,Light Rain,250,2013-07-20 03:01:00
11:54 PM,72.0,70.0,93,29.76,7.0,SE,4.6,-,0.11,Rain,Light Rain,130,2013-07-20 03:54:00